TimeEST,TemperatureF,Dew PointF,Humidity,Sea Level PressureIn,VisibilityMPH,Wind Direction,Wind SpeedMPH,Gust SpeedMPH,PrecipitationIn,Events,Conditions,WindDirDegrees,DateUTC
12:15 AM,39.2,33.8,81,30.19,10.0,Calm,Calm,-,N/A,,Clear,0,2012-11-27 05:15:00
12:35 AM,39.2,33.8,81,30.19,10.0,Calm,Calm,-,N/A,,Clear,0,2012-11-27 05:35:00
12:55 AM,39.2,33.8,81,30.20,10.0,Calm,Calm,-,N/A,,Clear,0,2012-11-27 05:55:00
1:15 AM,37.4,33.8,87,30.19,10.0,Calm,Calm,-,N/A,,Clear,0,2012-11-27 06:15:00
1:35 AM,37.4,30.2,75,30.20,10.0,Calm,Calm,-,N/A,,Clear,0,2012-11-27 06:35:00
1:55 AM,37.4,32.0,81,30.19,10.0,Calm,Calm,-,N/A,,Clear,0,2012-11-27 06:55:00
2:15 AM,35.6,32.0,87,30.19,10.0,Calm,Calm,-,N/A,,Clear,0,2012-11-27 07:15:00
2:35 AM,37.4,33.8,87,30.19,10.0,Calm,Calm,-,N/A,,Clear,0,2012-11-27 07:35:00
2:55 AM,37.4,33.8,87,30.19,10.0,Calm,Calm,-,N/A,,Clear,0,2012-11-27 07:55:00
3:15 AM,37.4,33.8,87,30.19,10.0,Calm,Calm,-,N/A,,Clear,0,2012-11-27 08:15:00
3:35 AM,37.4,33.8,87,30.19,10.0,Calm,Calm,-,N/A,,Clear,0,2012-11-27 08:35:00
3:55 AM,39.2,33.8,81,30.18,10.0,Calm,Calm,-,N/A,,Clear,0,2012-11-27 08:55:00
4:15 AM,39.2,35.6,87,30.18,10.0,Calm,Calm,-,N/A,,Clear,0,2012-11-27 09:15:00
4:35 AM,37.4,35.6,93,30.18,10.0,Calm,Calm,-,N/A,,Clear,0,2012-11-27 09:35:00
4:55 AM,39.2,37.4,93,30.18,10.0,Calm,Calm,-,N/A,,Clear,0,2012-11-27 09:55:00
5:15 AM,42.8,37.4,81,30.18,10.0,Calm,Calm,-,N/A,,Clear,0,2012-11-27 10:15:00
5:35 AM,42.8,37.4,81,30.18,10.0,Calm,Calm,-,N/A,,Clear,0,2012-11-27 10:35:00
5:50 AM,46.4,39.2,76,30.19,10.0,Calm,Calm,-,N/A,,Clear,0,2012-11-27 10:50:00
6:45 AM,46.4,39.2,76,30.19,10.0,Calm,Calm,-,N/A,,Clear,0,2012-11-27 11:45:00
7:45 AM,48.2,42.8,82,30.20,10.0,Calm,Calm,-,N/A,,Mostly Cloudy,0,2012-11-27 12:45:00
8:50 AM,51.8,42.8,71,30.20,10.0,West,4.6,-,N/A,,Clear,270,2012-11-27 13:50:00
9:45 AM,57.2,39.2,51,30.21,10.0,West,6.9,-,N/A,,Clear,270,2012-11-27 14:45:00
10:50 AM,60.8,39.2,45,30.17,10.0,Variable,5.8,-,N/A,,Clear,0,2012-11-27 15:50:00
12:45 PM,60.8,46.4,59,30.16,10.0,South,9.2,-,N/A,,Overcast,180,2012-11-27 17:45:00
1:50 PM,59.0,48.2,67,30.14,10.0,SE,6.9,-,N/A,,Overcast,140,2012-11-27 18:50:00
2:45 PM,55.4,50.0,82,30.15,4.0,SSW,11.5,-,N/A,Rain,Light Rain,200,2012-11-27 19:45:00
3:45 PM,53.6,51.8,94,30.11,10.0,SSE,5.8,-,N/A,,Scattered Clouds,150,2012-11-27 20:45:00
4:50 PM,53.6,50.0,88,30.09,7.0,North,8.1,-,N/A,,Overcast,350,2012-11-27 21:50:00
5:30 PM,53.6,51.8,94,30.14,5.0,South,11.5,17.3,N/A,Rain,Light Rain,180,2012-11-27 22:30:00
7:45 PM,51.8,50.0,94,30.16,8.0,South,8.1,-,N/A,Rain,Light Rain,170,2012-11-28 00:45:00
9:50 PM,50.0,48.2,94,30.17,7.0,WNW,5.8,-,N/A,,Mostly Cloudy,290,2012-11-28 02:50:00
10:50 PM,50.0,50.0,100,-9999,-9999.0,North,-9999.0,-,N/A,,Mostly Cloudy,0,2012-11-28 03:50:00
10:55 PM,50.0,48.2,94,30.16,3.0,NNW,4.6,-,N/A,,Mostly Cloudy,340,2012-11-28 03:55:00
11:15 PM,50.0,48.2,94,30.17,4.0,Calm,Calm,-,N/A,,Mostly Cloudy,0,2012-11-28 04:15:00
11:35 PM,50.0,48.2,94,30.17,2.5,NNW,3.5,-,N/A,,Partly Cloudy,340,2012-11-28 04:35:00
11:55 PM,50.0,48.2,94,30.17,5.0,NNW,4.6,-,N/A,,Mostly Cloudy,340,2012-11-28 04:55:00